TimeCDT,TemperatureF,Dew PointF,Humidity,Sea Level PressureIn,VisibilityMPH,Wind Direction,Wind SpeedMPH,Gust SpeedMPH,PrecipitationIn,Events,Conditions,WindDirDegrees,DateUTC
12:15 AM,59.5,40.1,49,29.71,10.0,SSW,16.1,21.9,N/A,,Clear,200,2013-04-06 05:15:00
12:35 AM,58.8,41.0,52,29.70,10.0,South,13.8,19.6,N/A,,Clear,190,2013-04-06 05:35:00
12:55 AM,58.3,41.4,53,29.70,10.0,SSW,12.7,18.4,N/A,,Clear,200,2013-04-06 05:55:00
1:15 AM,57.6,41.5,55,29.69,10.0,South,13.8,-,N/A,,Clear,190,2013-04-06 06:15:00
1:35 AM,57.2,41.9,57,29.69,10.0,South,12.7,20.7,N/A,,Clear,190,2013-04-06 06:35:00
1:55 AM,56.7,41.9,58,29.68,10.0,South,12.7,-,N/A,,Clear,190,2013-04-06 06:55:00
2:15 AM,56.3,42.3,59,29.67,10.0,South,10.4,-,N/A,,Clear,180,2013-04-06 07:15:00
2:35 AM,55.9,42.8,61,29.66,10.0,South,12.7,18.4,N/A,,Clear,190,2013-04-06 07:35:00
2:55 AM,55.9,43.0,62,29.66,10.0,SSW,8.1,20.7,N/A,,Clear,210,2013-04-06 07:55:00
3:15 AM,55.8,43.0,62,29.66,10.0,SSW,6.9,-,N/A,,Clear,210,2013-04-06 08:15:00
3:35 AM,55.9,43.3,63,29.66,10.0,SSW,9.2,-,N/A,,Clear,210,2013-04-06 08:35:00
3:55 AM,56.3,43.7,63,29.65,10.0,SSW,13.8,19.6,N/A,,Scattered Clouds,200,2013-04-06 08:55:00
4:15 AM,56.5,43.7,62,29.66,10.0,SSW,13.8,18.4,N/A,,Scattered Clouds,200,2013-04-06 09:15:00
4:35 AM,54.9,43.3,65,29.64,10.0,SSW,12.7,-,N/A,,Clear,200,2013-04-06 09:35:00
4:55 AM,54.9,43.7,66,29.65,10.0,SSW,9.2,-,N/A,,Clear,200,2013-04-06 09:55:00
5:15 AM,55.4,43.7,65,29.63,10.0,South,15.0,20.7,N/A,,Scattered Clouds,180,2013-04-06 10:15:00
5:35 AM,55.9,44.1,64,29.63,10.0,South,17.3,-,N/A,,Scattered Clouds,180,2013-04-06 10:35:00
5:55 AM,55.2,43.9,66,29.63,10.0,South,11.5,18.4,N/A,,Scattered Clouds,190,2013-04-06 10:55:00
6:15 AM,53.8,43.7,69,29.63,10.0,South,11.5,-,N/A,,Clear,190,2013-04-06 11:15:00
6:35 AM,53.1,43.7,71,29.63,10.0,South,11.5,-,N/A,,Clear,190,2013-04-06 11:35:00
6:55 AM,52.7,43.9,72,29.64,10.0,SSW,10.4,-,N/A,,Clear,210,2013-04-06 11:55:00
7:15 AM,53.1,43.9,71,29.64,10.0,SSW,11.5,-,N/A,,Clear,200,2013-04-06 12:15:00
7:35 AM,53.6,44.1,70,29.65,10.0,SSW,10.4,-,N/A,,Clear,210,2013-04-06 12:35:00
7:55 AM,53.2,44.4,72,29.66,10.0,SW,9.2,-,N/A,,Clear,230,2013-04-06 12:55:00
8:15 AM,54.0,44.6,71,29.66,10.0,WSW,12.7,16.1,N/A,,Clear,240,2013-04-06 13:15:00
8:35 AM,54.1,44.6,70,29.67,10.0,WSW,11.5,-,N/A,,Clear,250,2013-04-06 13:35:00
8:55 AM,54.1,44.2,69,29.68,10.0,West,15.0,18.4,N/A,,Clear,280,2013-04-06 13:55:00
9:15 AM,55.9,39.6,54,29.69,10.0,NW,18.4,23.0,N/A,,Clear,320,2013-04-06 14:15:00
9:35 AM,57.7,36.7,45,29.69,10.0,NW,17.3,26.5,N/A,,Clear,320,2013-04-06 14:35:00
9:55 AM,58.1,36.1,44,29.70,10.0,NW,18.4,21.9,N/A,,Scattered Clouds,310,2013-04-06 14:55:00
10:15 AM,58.1,36.7,45,29.71,10.0,NW,15.0,26.5,N/A,,Scattered Clouds,320,2013-04-06 15:15:00
10:35 AM,58.5,37.4,45,29.71,10.0,NW,16.1,24.2,N/A,,Scattered Clouds,310,2013-04-06 15:35:00
10:55 AM,60.3,38.7,45,29.71,10.0,NW,13.8,21.9,N/A,,Scattered Clouds,320,2013-04-06 15:55:00
11:15 AM,63.0,40.3,43,29.71,10.0,NW,12.7,24.2,N/A,,Scattered Clouds,320,2013-04-06 16:15:00
11:35 AM,64.2,40.6,42,29.71,10.0,NW,16.1,26.5,N/A,,Clear,310,2013-04-06 16:35:00
11:55 AM,66.2,41.2,40,29.71,10.0,NW,15.0,28.8,N/A,,Clear,320,2013-04-06 16:55:00
12:15 PM,67.5,40.5,37,29.71,10.0,NW,16.1,26.5,N/A,,Clear,320,2013-04-06 17:15:00
12:35 PM,68.4,39.6,35,29.71,10.0,WNW,17.3,23.0,N/A,,Clear,300,2013-04-06 17:35:00
12:55 PM,68.7,39.0,34,29.71,10.0,NW,19.6,29.9,N/A,,Scattered Clouds,310,2013-04-06 17:55:00
1:15 PM,68.2,38.7,34,29.72,10.0,NW,17.3,26.5,N/A,,Mostly Cloudy,310,2013-04-06 18:15:00
1:35 PM,68.0,39.0,35,29.72,10.0,NW,16.1,23.0,N/A,,Mostly Cloudy,310,2013-04-06 18:35:00
1:55 PM,70.3,37.6,30,29.72,10.0,NW,17.3,25.3,N/A,,Mostly Cloudy,320,2013-04-06 18:55:00
2:15 PM,68.0,39.4,35,29.71,10.0,NNW,17.3,29.9,N/A,,Mostly Cloudy,330,2013-04-06 19:15:00
2:35 PM,70.2,37.6,30,29.72,10.0,NW,15.0,20.7,N/A,,Scattered Clouds,310,2013-04-06 19:35:00
2:55 PM,71.2,37.9,30,29.72,10.0,WNW,18.4,24.2,N/A,,Mostly Cloudy,300,2013-04-06 19:55:00
3:15 PM,70.5,38.3,31,29.73,10.0,NW,15.0,20.7,N/A,,Mostly Cloudy,320,2013-04-06 20:15:00
3:35 PM,71.8,37.4,29,29.73,10.0,NW,20.7,35.7,N/A,,Mostly Cloudy,320,2013-04-06 20:35:00
3:55 PM,69.4,36.9,30,29.74,10.0,NNW,16.1,20.7,N/A,,Mostly Cloudy,330,2013-04-06 20:55:00
4:15 PM,69.1,37.0,31,29.75,10.0,NNW,12.7,-,N/A,,Mostly Cloudy,340,2013-04-06 21:15:00
4:35 PM,71.4,36.3,28,29.74,10.0,North,11.5,17.3,N/A,,Scattered Clouds,360,2013-04-06 21:35:00
4:55 PM,72.7,35.2,25,29.74,10.0,North,12.7,17.3,N/A,,Mostly Cloudy,360,2013-04-06 21:55:00
5:15 PM,72.5,35.1,25,29.75,10.0,North,12.7,17.3,N/A,,Mostly Cloudy,10,2013-04-06 22:15:00
5:35 PM,71.8,34.2,25,29.76,10.0,North,10.4,-,N/A,,Scattered Clouds,360,2013-04-06 22:35:00
5:55 PM,71.2,33.3,25,29.76,10.0,NW,13.8,-,N/A,,Scattered Clouds,320,2013-04-06 22:55:00
6:15 PM,71.2,33.1,25,29.77,10.0,NW,8.1,16.1,N/A,,Clear,320,2013-04-06 23:15:00
6:35 PM,70.5,33.6,26,29.77,10.0,NW,4.6,-,N/A,,Scattered Clouds,320,2013-04-06 23:35:00
6:55 PM,69.4,34.9,28,29.77,10.0,Calm,Calm,-,N/A,,Clear,0,2013-04-06 23:55:00
7:15 PM,68.7,35.4,29,29.77,10.0,Calm,Calm,-,N/A,,Clear,0,2013-04-07 00:15:00
7:35 PM,65.5,40.8,41,29.77,10.0,Calm,Calm,-,N/A,,Clear,0,2013-04-07 00:35:00
7:55 PM,63.7,39.2,41,29.77,10.0,South,3.5,-,N/A,,Clear,180,2013-04-07 00:55:00
8:15 PM,59.9,39.6,47,29.77,10.0,South,4.6,-,N/A,,Clear,180,2013-04-07 01:15:00
8:35 PM,59.7,39.7,48,29.77,10.0,South,5.8,-,N/A,,Clear,190,2013-04-07 01:35:00
8:55 PM,59.5,39.4,47,29.78,10.0,SSW,3.5,-,N/A,,Clear,200,2013-04-07 01:55:00
9:15 PM,58.3,39.7,50,29.78,10.0,Calm,Calm,-,N/A,,Clear,0,2013-04-07 02:15:00
9:35 PM,58.3,38.7,48,29.79,10.0,Calm,Calm,-,N/A,,Clear,0,2013-04-07 02:35:00
9:55 PM,56.3,38.5,51,29.79,10.0,SSW,4.6,-,N/A,,Clear,210,2013-04-07 02:55:00
10:15 PM,57.4,37.9,48,29.80,10.0,SSW,4.6,-,N/A,,Clear,210,2013-04-07 03:15:00
10:35 PM,56.3,38.1,51,29.80,10.0,SW,3.5,-,N/A,,Clear,220,2013-04-07 03:35:00
10:55 PM,56.7,38.3,50,29.81,10.0,WSW,4.6,-,N/A,,Clear,240,2013-04-07 03:55:00
11:15 PM,54.3,38.5,55,29.81,10.0,WSW,5.8,-,N/A,,Clear,250,2013-04-07 04:15:00
11:35 PM,52.2,38.7,60,29.81,10.0,West,3.5,-,N/A,,Clear,260,2013-04-07 04:35:00
11:55 PM,48.7,37.9,66,29.81,10.0,Calm,Calm,-,N/A,,Clear,0,2013-04-07 04:55:00